Wind_Speed
4 3 3 4 4 5 5 4 4 4 5 5 6 8 8 7 6 6 5 5 4 4 4 4 4 4 4 3 3 2 2 1 1 2 2 2 1 1 0 1 1 1 2
3 3 3 4 3 4 3 4 4 4 5 5 6 7 7 6 6 5 5 5 4 3 4 3 3 4 3 3 3 2 1 1 1 2 2 2 1 1 1 2 2 2 2
2 3 3 3 3 3 3 3 3 4 5 4 6 6 6 5 5 5 5 5 3 3 3 3 4 4 3 3 3 2 2 2 2 2 2 2 2 2 2 2 2 2 3
3 2 2 2 3 3 2 3 3 4 5 4 5 5 5 5 4 4 4 4 3 3 3 3 4 3 4 4 3 3 2 3 3 2 2 2 2 2 2 2 3 2 3
2 2 2 2 2 2 2 2 3 4 4 5 5 4 4 4 4 4 4 4 3 3 3 3 4 4 4 4 4 3 3 3 3 3 3 2 2 3 3 3 3 3 4
3 2 1 1 1 1 2 2 2 3 3 4 4 4 3 3 3 3 3 3 3 3 3 4 4 4 4 4 4 4 3 3 3 3 4 4 3 3 4 4 4 5 5
3 2 1 0 0 1 1 1 2 2 3 3 3 3 3 3 3 2 3 3 3 3 4 5 5 5 5 5 5 5 4 4 4 4 5 5 5 5 5 5 5 6 6
3 2 2 1 0 1 1 1 2 2 2 3 3 2 2 2 2 2 2 3 3 4 4 4 5 5 6 5 5 5 5 5 5 5 6 6 6 6 6 6 6 7 7
4 3 2 1 0 0 1 2 2 2 2 2 3 3 3 3 3 3 3 3 4 4 5 5 4 5 5 6 6 6 6 6 6 6 6 7 7 7 7 7 7 7 7
6 5 3 1 0 0 1 1 2 2 1 1 1 2 3 3 3 3 3 4 4 4 5 5 5 5 5 6 6 7 7 7 7 7 7 8 8 8 8 7 7 7 7
6 5 4 2 2 0 1 1 1 1 1 1 2 2 3 3 4 4 3 4 5 5 5 5 5 5 5 6 6 7 8 8 8 8 8 8 9 8 8 8 8 8 8
7 6 4 3 2 1 0 1 1 1 1 2 2 2 3 3 4 3 4 5 5 5 5 5 4 4 5 6 6 7 8 8 8 9 9 9 9 9 9 8 8 9 9
7 6 5 4 3 2 1 1 1 2 2 3 3 3 3 4 4 3 4 4 5 5 5 5 5 4 5 5 6 7 7 8 8 9 10 10 10 10 10 10 10 10 10
6 5 5 5 4 3 3 3 3 3 3 4 4 4 5 5 4 4 4 5 5 5 5 4 4 5 5 6 6 7 8 8 9 10 10 10 10 11 11 11 11 11 11
6 5 5 5 5 5 4 3 3 3 4 5 5 5 6 5 5 5 5 6 6 6 5 5 5 5 6 7 7 7 8 8 9 10 10 10 10 10 11 11 11 11 12
7 6 7 6 6 5 5 4 4 3 4 5 5 6 6 6 6 6 6 6 6 6 7 7 7 7 7 7 7 8 9 9 9 10 10 10 10 10 10 11 11 12 12
7 7 7 8 7 6 6 5 5 5 5 5 6 6 5 5 6 6 6 7 7 7 8 8 8 8 8 8 8 9 9 10 10 11 11 11 10 10 10 10 10 11 11
7 7 8 9 8 7 7 6 5 5 5 5 6 5 5 5 6 6 7 8 8 8 8 8 8 8 8 8 8 9 9 9 9 10 9 9 10 10 10 10 10 10 11
7 8 8 9 8 8 8 6 6 5 5 5 5 5 6 6 6 7 7 8 8 8 9 8 8 8 8 8 8 9 9 9 9 8 7 7 8 8 9 10 10 11 11
8 8 8 8 9 9 9 7 7 6 5 5 5 5 6 7 7 8 8 8 8 8 9 8 8 7 8 8 8 8 9 9 8 8 7 7 7 8 9 9 10 11 11
9 9 9 9 8 8 8 8 8 7 6 6 6 6 6 7 8 8 8 9 8 8 8 8 8 8 8 8 8 8 9 9 8 8 8 8 9 9 9 10 10 11 10
9 9 9 8 9 9 9 9 8 7 8 8 7 7 7 8 8 8 9 9 9 9 8 9 9 9 9 9 9 10 9 9 9 8 8 9 9 9 9 10 10 11 11
9 9 9 9 9 9 9 9 9 8 8 8 8 8 8 8 8 9 9 9 9 9 9 9 9 10 10 11 12 12 12 11 10 9 9 9 9 10 10 10 10 12 12
9 9 9 9 9 9 9 9 10 10 10 8 8 7 8 9 10 10 9 9 10 10 11 11 11 11 12 12 13 13 12 12 11 10 9 9 10 11 11 11 12 13 12
10 10 9 10 10 10 10 11 11 12 11 11 10 10 10 10 10 10 10 11 11 11 12 13 12 12 13 13 13 13 13 13 13 12 12 12 12 12 12 13 13 13 12
11 11 10 10 11 11 11 11 11 12 12 12 11 12 12 12 12 13 12 13 13 13 13 13 13 13 13 13 13 13 13 13 13 13 13 12 13 13 13 13 13 14 14
Wind_Direction
110 126 136 137 132 135 139 142 143 148 158 166 166 161 166 172 176 181 172 171 179 183 181 174 167 169 174 173 170 170 177 195 188 184 180 177 167 159 208 273 276 255 261
102 116 123 130 135 140 148 150 158 158 158 167 166 164 166 178 180 182 181 174 174 183 186 175 174 170 181 181 186 194 200 217 223 212 200 205 210 205 250 266 273 273 278
88 108 112 109 123 130 137 150 162 163 157 162 171 172 175 182 189 192 194 190 185 184 208 207 196 190 193 190 191 201 213 227 238 236 216 223 234 237 266 268 257 257 272
86 96 96 97 108 125 137 150 161 162 158 157 165 175 181 185 193 198 197 199 191 201 225 225 214 202 205 207 206 215 226 229 239 245 235 230 234 250 264 274 263 261 274
75 91 93 97 104 119 137 137 147 157 164 161 165 173 181 190 197 204 203 210 208 210 227 234 223 218 217 220 222 228 234 233 242 244 246 237 243 257 265 277 268 264 275
68 84 87 87 105 120 133 141 146 160 169 171 178 180 187 200 211 211 207 211 208 228 240 240 232 223 226 228 228 230 239 247 255 248 256 263 261 265 268 274 268 268 272
50 45 18 20 78 142 133 138 160 170 173 185 190 194 204 221 226 231 218 225 235 248 252 249 244 235 237 236 235 239 243 249 257 255 255 262 264 265 268 270 274 272 273
31 3 325 307 257 226 183 168 182 174 185 192 197 206 218 233 239 249 240 255 270 267 268 260 255 249 250 243 238 242 245 251 259 260 262 266 271 271 269 269 275 277 276
23 11 343 322 23 199 201 192 208 203 206 217 223 230 229 240 252 275 262 264 282 281 280 273 264 255 250 248 249 250 248 251 257 261 263 263 269 275 277 277 278 280 282
27 35 40 52 82 226 191 197 189 178 212 245 255 247 247 251 258 269 266 271 276 285 282 279 278 264 258 254 258 254 252 256 261 266 267 267 272 275 277 279 280 283 284
32 39 43 47 38 24 202 209 163 183 218 276 277 265 273 271 269 270 286 288 289 295 294 284 279 274 270 262 268 266 265 266 271 271 272 275 277 276 273 275 279 281 284
28 31 29 23 25 355 252 223 221 235 268 291 292 284 284 292 291 284 290 296 299 297 291 290 278 272 277 281 277 274 271 272 272 275 276 277 282 280 276 275 276 278 277
25 21 24 27 25 5 328 302 301 294 290 291 292 290 292 294 297 301 297 302 299 300 298 289 284 280 288 288 285 282 281 279 279 282 280 281 283 283 280 277 277 276 272
15 16 12 12 3 346 331 317 305 301 304 301 298 295 292 289 297 302 300 298 296 301 300 297 292 294 300 302 296 287 284 288 285 285 283 277 279 283 281 277 276 275 273
4 6 7 4 359 352 340 321 310 302 300 302 302 295 286 288 291 297 299 297 302 305 308 313 312 302 297 300 298 298 297 293 292 291 291 285 284 286 285 282 280 277 277
1 0 359 357 356 351 340 329 329 319 309 310 300 293 288 287 291 296 301 301 302 303 302 308 311 306 302 302 302 298 300 297 296 295 288 282 281 283 284 288 288 282 282
4 357 353 353 351 348 342 342 339 326 316 316 312 306 297 288 287 294 305 308 305 305 306 308 309 310 308 310 311 306 308 308 305 299 293 284 280 279 281 284 288 287 285
359 357 355 352 353 350 345 344 337 332 322 321 320 314 306 300 297 302 308 310 312 313 315 314 312 316 313 311 314 311 308 310 312 306 302 294 286 282 281 283 285 287 286
353 352 351 348 350 350 346 346 349 349 345 337 331 329 324 316 307 311 315 315 316 316 318 318 315 313 309 310 317 310 310 315 318 313 308 300 292 291 288 288 289 290 289
343 345 347 346 345 345 341 339 335 334 336 336 330 326 327 326 324 323 322 321 317 316 319 320 313 312 312 316 317 312 311 311 311 312 308 297 291 292 291 292 290 290 290
336 335 334 335 339 340 339 330 328 324 325 328 329 325 322 324 324 322 323 325 324 320 317 318 316 314 313 317 315 314 313 314 307 301 300 295 293 296 296 290 288 290 287
333 332 329 327 328 331 332 327 325 319 318 320 319 323 324 325 324 322 320 321 323 321 320 321 322 321 317 318 315 311 313 313 305 299 297 297 298 299 296 294 288 286 289
323 324 322 320 322 322 324 325 320 319 316 310 313 320 321 320 320 323 323 323 320 318 318 315 314 314 312 312 313 311 311 313 309 304 297 296 297 298 295 292 288 291 292
320 318 318 318 319 319 319 321 321 323 322 312 310 312 315 318 317 316 317 317 317 315 314 312 309 304 303 305 307 309 310 311 312 305 301 298 298 301 301 300 298 295 292
314 313 314 316 318 317 316 315 314 316 318 316 312 304 303 308 309 309 310 311 312 313 310 309 307 302 299 298 301 304 305 306 309 306 301 301 302 305 305 300 301 299 293
312 310 313 316 316 315 315 314 312 311 314 313 311 307 302 302 302 301 302 304 304 305 306 307 306 304 301 299 300 301 301 301 302 303 299 301 303 303 303 298 299 302 299
Height
5878 5878 5878 5879 5879 5880 5880 5880 5881 5881 5882 5882 5883 5883 5884 5885 5886 5886 5886 5887 5888 5888 5889 5889 5889 5889 5890 5891 5892 5892 5893 5894 5894 5894 5895 5895 5896 5896 5897 5897 5898 5898 5898
5879 5879 5879 5880 5880 5880 5881 5881 5881 5882 5882 5883 5883 5884 5885 5885 5886 5886 5887 5887 5888 5888 5889 5889 5889 5890 5890 5891 5892 5892 5893 5893 5894 5894 5895 5895 5896 5896 5897 5897 5897 5898 5898
5879 5880 5880 5880 5881 5881 5881 5882 5882 5882 5883 5883 5884 5884 5885 5885 5886 5887 5887 5888 5888 5888 5889 5889 5889 5890 5890 5891 5891 5892 5893 5893 5893 5894 5894 5895 5895 5896 5896 5897 5897 5897 5898
5880 5881 5881 5881 5881 5882 5882 5882 5882 5883 5883 5884 5884 5885 5885 5886 5886 5887 5887 5887 5888 5888 5889 5889 5889 5890 5890 5891 5891 5892 5892 5893 5893 5894 5894 5895 5895 5896 5896 5896 5896 5897 5897
5882 5882 5882 5882 5882 5882 5883 5883 5883 5883 5884 5884 5884 5885 5885 5886 5886 5887 5887 5887 5887 5888 5889 5889 5889 5890 5890 5890 5891 5891 5892 5893 5893 5893 5894 5894 5894 5895 5895 5896 5896 5896 5896
5883 5883 5882 5883 5883 5883 5883 5883 5883 5884 5884 5884 5885 5885 5886 5886 5887 5886 5886 5887 5887 5888 5888 5889 5889 5889 5890 5890 5891 5891 5892 5892 5893 5893 5893 5893 5894 5895 5895 5895 5895 5895 5895
5883 5882 5883 5883 5883 5883 5883 5883 5884 5884 5885 5885 5885 5886 5886 5886 5887 5886 5886 5887 5887 5888 5888 5888 5888 5889 5889 5890 5890 5891 5891 5892 5892 5893 5893 5894 5894 5894 5894 5894 5894 5894 5894
5884 5883 5883 5883 5883 5884 5884 5884 5884 5884 5885 5885 5885 5886 5886 5887 5887 5887 5887 5887 5887 5887 5888 5888 5888 5888 5888 5889 5890 5890 5890 5891 5891 5892 5892 5893 5893 5893 5893 5893 5893 5893 5893
5884 5883 5882 5883 5883 5884 5884 5884 5884 5885 5885 5885 5886 5886 5886 5887 5887 5887 5887 5887 5887 5887 5887 5887 5887 5887 5887 5888 5889 5889 5890 5890 5890 5891 5891 5891 5892 5892 5892 5892 5892 5892 5892
5884 5883 5882 5883 5884 5884 5884 5884 5884 5885 5885 5886 5886 5886 5886 5887 5887 5887 5887 5887 5887 5886 5886 5886 5886 5886 5887 5887 5888 5888 5888 5889 5889 5889 5890 5890 5890 5890 5890 5890 5890 5890 5890
5886 5884 5883 5884 5884 5884 5884 5884 5885 5885 5885 5886 5886 5886 5886 5886 5887 5887 5887 5887 5887 5886 5886 5886 5886 5886 5885 5886 5886 5886 5887 5887 5887 5887 5888 5888 5888 5889 5889 5889 5889 5889 5889
5887 5886 5885 5885 5885 5885 5885 5885 5885 5886 5886 5886 5886 5886 5886 5886 5886 5886 5886 5886 5886 5886 5885 5885 5885 5885 5885 5884 5885 5885 5885 5885 5886 5886 5886 5886 5886 5886 5887 5887 5887 5887 5887
5889 5887 5886 5886 5886 5886 5886 5886 5886 5886 5886 5886 5886 5886 5886 5886 5886 5886 5886 5886 5885 5885 5884 5884 5884 5884 5884 5884 5884 5884 5884 5884 5884 5884 5884 5884 5884 5884 5884 5885 5885 5885 5885
5890 5889 5888 5888 5887 5886 5886 5886 5886 5886 5886 5886 5886 5886 5886 5886 5886 5886 5886 5886 5885 5884 5884 5883 5883 5883 5883 5883 5883 5882 5882 5882 5882 5881 5882 5881 5881 5881 5881 5882 5882 5883 5883
5891 5890 5889 5889 5888 5887 5887 5886 5886 5886 5885 5886 5885 5885 5885 5885 5885 5885 5885 5885 5884 5884 5883 5883 5882 5882 5882 5882 5882 5881 5881 5880 5879 5879 5878 5878 5878 5878 5879 5879 5880 5880 5880
5892 5891 5890 5890 5889 5888 5887 5886 5886 5885 5885 5885 5884 5884 5885 5885 5884 5884 5884 5884 5884 5883 5883 5882 5882 5881 5881 5880 5880 5880 5879 5877 5876 5875 5875 5874 5875 5876 5876 5877 5878 5878 5878
5893 5892 5891 5890 5889 5888 5887 5886 5886 5885 5885 5884 5884 5884 5884 5884 5884 5884 5884 5883 5883 5883 5882 5881 5881 5880 5879 5879 5879 5878 5877 5876 5874 5872 5871 5871 5871 5873 5874 5875 5875 5875 5875
5893 5893 5892 5891 5890 5889 5888 5887 5886 5885 5885 5884 5884 5884 5884 5884 5883 5883 5883 5883 5882 5882 5881 5880 5879 5879 5879 5878 5877 5876 5875 5874 5872 5869 5868 5868 5869 5871 5872 5872 5873 5873 5873
5894 5893 5892 5891 5890 5889 5888 5887 5886 5886 5885 5884 5884 5884 5884 5884 5883 5883 5882 5882 5882 5881 5880 5879 5879 5878 5878 5877 5875 5874 5873 5872 5870 5868 5867 5867 5868 5869 5870 5870 5871 5871 5871
5894 5893 5892 5891 5890 5889 5888 5887 5886 5886 5885 5885 5884 5884 5884 5883 5883 5882 5882 5881 5880 5880 5879 5878 5878 5877 5876 5875 5874 5873 5872 5871 5870 5869 5868 5867 5868 5868 5868 5869 5869 5868 5868
5894 5893 5892 5891 5890 5889 5888 5887 5886 5885 5885 5885 5884 5884 5883 5883 5882 5882 5881 5880 5879 5879 5878 5877 5877 5876 5875 5874 5873 5872 5871 5869 5868 5868 5867 5867 5867 5867 5867 5867 5866 5866 5865
5893 5892 5891 5890 5890 5889 5887 5886 5886 5885 5884 5884 5884 5883 5882 5882 5882 5881 5880 5879 5879 5878 5877 5876 5875 5875 5874 5873 5872 5871 5870 5869 5868 5867 5866 5866 5866 5865 5864 5864 5864 5864 5863
5893 5892 5891 5890 5889 5888 5887 5886 5885 5884 5884 5883 5883 5882 5881 5881 5881 5880 5879 5878 5877 5877 5876 5875 5874 5873 5873 5872 5870 5870 5869 5867 5866 5866 5865 5864 5864 5864 5863 5862 5861 5861 5861
5892 5891 5890 5889 5888 5887 5886 5885 5884 5884 5883 5882 5881 5881 5880 5880 5879 5878 5878 5877 5876 5875 5874 5873 5872 5872 5871 5870 5869 5868 5867 5865 5865 5864 5863 5862 5862 5861 5860 5860 5859 5858 5858
5890 5889 5889 5888 5887 5886 5885 5884 5883 5883 5882 5881 5880 5879 5879 5878 5877 5877 5876 5875 5874 5873 5872 5871 5870 5869 5868 5868 5867 5866 5865 5864 5863 5862 5861 5860 5860 5859 5858 5857 5857 5856 5855
5888 5887 5887 5886 5885 5885 5884 5883 5882 5881 5880 5879 5878 5878 5877 5876 5876 5875 5874 5873 5872 5871 5870 5869 5868 5867 5866 5865 5864 5863 5862 5862 5860 5859 5859 5858 5857 5857 5856 5855 5854 5853 5853